Wind_Speed
19 21 22 22 21 21 21 21 22 21 23 24 25 25 25 25 24 25 25 24 23 23 23 23 23 23 23 23 24 24 24 24 24 24 23 23 23 23 22 21 21 21 21 21
20 20 23 23 22 22 22 22 22 22 23 24 25 26 26 26 25 25 25 25 24 24 24 24 24 24 25 25 25 25 25 25 25 25 25 25 25 25 24 23 23 23 22 22
21 21 23 24 22 23 23 23 23 23 24 25 26 26 27 27 27 26 26 26 26 26 26 26 26 26 25 25 26 26 25 26 26 26 26 26 26 26 25 25 24 24 24 24
22 22 23 22 21 22 23 23 25 25 26 26 26 27 27 27 27 27 26 26 26 27 27 27 27 27 26 26 26 27 27 27 27 27 27 27 27 27 27 27 26 27 26 26
23 23 23 23 22 22 23 24 25 26 26 27 27 28 27 27 26 26 26 26 26 27 27 27 27 27 27 28 27 28 28 28 28 28 28 28 28 28 28 28 29 29 29 29
23 24 24 23 22 22 24 25 24 25 26 26 27 29 28 29 28 28 28 28 28 28 28 28 28 28 28 28 28 29 29 29 29 29 29 29 29 29 30 30 30 30 29 29
24 25 25 24 23 23 24 25 25 25 26 26 27 28 29 29 29 29 29 29 29 29 29 29 29 29 30 30 30 30 30 30 30 30 30 31 31 31 31 32 32 31 31 31
25 25 25 25 25 25 26 26 26 26 27 28 28 28 29 30 30 30 30 30 30 30 30 30 30 30 30 31 31 31 31 31 32 32 32 32 33 33 33 33 33 33 33 33
26 27 27 27 27 27 28 28 28 28 29 30 30 30 30 31 32 32 31 31 31 31 31 31 31 31 31 31 31 32 32 33 33 33 34 34 34 34 34 34 34 35 35 35
27 28 28 29 29 29 30 30 30 30 31 31 31 32 32 32 33 32 32 32 32 33 33 33 32 32 32 32 32 32 33 33 34 34 34 35 35 35 35 35 36 35 36 36
29 29 30 30 30 30 31 31 32 32 32 33 33 33 33 33 33 33 33 33 33 34 34 34 34 34 34 34 34 33 33 34 34 34 35 35 35 35 36 36 37 37 36 37
31 31 32 33 33 33 33 33 33 33 33 34 34 33 33 33 34 34 34 34 35 36 36 36 36 36 36 36 36 36 35 34 34 34 35 35 36 36 36 37 37 38 37 38
33 34 34 34 34 34 34 34 34 34 34 34 34 34 34 34 34 35 35 36 36 36 36 36 36 37 37 38 37 37 37 36 36 35 36 36 37 37 38 38 38 38 38 39
34 34 35 34 35 35 35 35 35 35 35 34 34 34 35 35 35 35 35 36 36 36 37 37 37 38 38 38 38 37 37 37 37 37 37 37 38 38 39 39 39 39 40 40
33 34 35 35 35 36 35 35 36 35 35 34 34 34 34 34 34 34 34 35 36 36 37 37 37 37 37 37 37 37 38 38 38 38 38 39 39 39 39 39 39 40 41 41
33 33 34 34 35 36 36 35 35 35 35 35 34 34 34 34 34 34 34 35 36 36 37 37 37 36 36 37 37 37 38 38 38 39 39 40 40 40 40 40 40 41 42 41
33 33 33 33 34 34 34 35 35 35 35 35 35 35 35 35 35 35 35 36 36 36 37 37 36 36 37 37 38 38 38 38 38 39 39 40 40 40 40 40 41 41 41 41
33 33 33 33 34 34 35 35 35 35 35 35 36 36 36 36 36 36 37 37 37 37 37 37 36 36 37 37 38 38 38 38 39 39 39 40 40 40 40 40 41 41 41 41
33 33 33 34 34 35 35 36 36 35 35 35 36 36 36 36 37 37 37 37 37 37 36 36 36 37 37 37 38 38 39 39 39 39 40 40 40 41 41 41 41 41 41 41
33 33 34 34 34 35 35 36 36 36 36 36 36 36 36 36 37 36 36 36 36 37 36 36 36 37 37 37 38 38 38 39 40 40 40 41 40 40 41 41 41 41 40 40
33 34 35 35 35 36 36 36 36 36 36 37 37 37 37 36 36 36 36 36 37 37 37 36 36 37 37 38 38 38 39 40 40 40 40 40 40 40 40 40 40 40 39 39
33 33 34 34 34 34 34 34 35 35 36 36 36 36 36 36 36 36 36 36 36 36 36 36 36 37 38 38 38 38 39 39 39 39 39 39 39 39 39 39 39 38 38 38
32 33 33 33 33 33 32 32 34 34 34 34 34 34 35 35 35 35 35 35 35 35 36 37 37 37 38 38 38 38 38 38 38 38 38 39 39 39 39 38 38 37 38 38
32 33 33 33 33 32 32 33 33 33 33 33 34 34 34 34 35 35 35 35 35 35 36 36 37 37 37 37 37 37 37 37 37 38 38 38 38 38 38 37 37 37 37 37
34 34 34 33 33 33 33 33 33 33 33 33 33 33 33 34 34 34 34 34 34 35 35 35 35 35 35 35 35 36 36 36 36 36 36 36 36 35 35 35 35 35 35 35
35 35 35 34 34 34 34 34 33 33 32 32 32 32 33 33 33 33 33 33 34 34 34 34 34 34 35 35 35 35 34 34 34 34 33 33 33 33 33 32 32 32 32 32
35 35 35 35 35 35 34 34 34 34 33 33 33 33 33 32 32 33 33 33 33 34 34 34 34 34 34 34 33 33 33 33 32 32 32 32 31 31 30 30 30 31 31 31
Wind_Direction
267 268 272 274 274 273 273 272 270 272 273 275 280 284 287 288 287 286 286 285 282 282 281 280 279 279 278 278 277 276 275 274 274 274 273 275 277 279 279 277 276 277 279 281
269 269 271 273 274 275 275 274 274 272 273 276 278 281 286 286 287 286 285 285 285 284 283 281 281 281 280 278 277 276 275 274 274 273 274 275 277 277 277 277 276 277 278 278
271 270 272 274 276 277 278 276 276 274 274 276 277 280 284 285 285 287 286 285 285 284 283 281 281 281 281 279 277 276 275 274 274 274 274 275 276 275 275 276 276 276 278 278
274 272 274 280 279 279 279 278 276 274 275 277 278 281 283 284 285 285 286 285 284 284 284 283 282 280 279 281 278 276 275 276 275 275 275 275 275 275 275 275 275 275 276 277
273 275 277 277 280 281 281 280 279 279 279 280 278 281 282 283 284 284 284 284 284 285 284 284 282 280 279 279 278 277 276 277 276 276 275 275 275 275 275 276 276 276 276 276
272 274 276 278 280 281 282 281 283 283 283 283 281 282 283 284 284 285 285 285 285 285 286 284 281 280 281 280 279 278 277 277 277 276 275 275 275 276 276 276 277 277 276 276
273 275 277 278 279 280 280 283 284 284 284 283 283 284 285 285 284 284 285 286 286 285 285 283 282 281 281 280 279 278 277 277 276 276 276 275 275 276 276 275 275 275 275 276
273 275 277 277 277 277 279 280 283 284 284 284 285 285 285 284 284 284 285 285 285 285 284 283 283 282 281 280 280 279 278 277 276 276 276 276 276 276 275 275 275 274 274 275
274 275 278 278 277 279 279 280 281 283 284 285 285 285 284 284 285 285 285 285 285 285 285 283 283 283 282 281 280 279 279 278 277 276 276 276 276 275 275 275 276 275 275 275
274 277 278 277 278 279 279 280 281 282 283 284 285 284 284 283 283 284 285 285 286 286 285 284 283 283 283 283 283 281 280 279 279 278 277 277 277 276 276 276 276 275 275 276
272 274 274 275 276 278 279 280 282 282 284 284 284 285 284 283 283 283 284 285 285 286 286 285 284 284 283 283 284 283 282 281 280 278 278 278 277 278 277 278 278 276 276 276
271 272 273 275 276 277 279 280 282 283 284 284 284 284 284 283 283 284 284 285 286 286 285 284 283 283 283 282 282 282 282 282 280 279 278 278 278 277 278 279 277 277 277 277
270 272 274 276 277 278 280 281 282 283 284 285 285 285 284 283 284 283 283 285 286 286 286 285 284 282 282 282 281 281 281 281 281 279 279 278 278 278 278 278 276 277 278 278
270 271 272 275 277 278 280 282 282 283 284 284 285 285 285 284 284 283 283 284 285 286 286 286 285 283 282 281 281 281 281 281 281 280 280 280 279 279 279 278 276 277 277 278
273 273 274 275 276 278 280 282 282 283 284 285 285 286 286 285 285 284 284 285 285 286 286 286 286 285 284 283 282 282 281 280 280 280 280 280 281 281 279 278 278 278 277 277
276 277 277 276 277 278 280 282 283 284 285 285 285 286 286 285 285 285 286 287 287 287 287 287 287 286 285 284 283 283 282 281 280 279 280 280 280 281 280 280 279 279 278 278
277 278 278 278 279 280 281 282 283 284 284 284 285 285 285 285 286 286 286 287 287 287 287 286 285 285 285 284 283 283 282 282 281 282 282 281 282 281 280 280 280 279 278 278
278 278 279 280 281 281 282 283 283 284 284 284 285 284 284 285 286 287 287 287 287 287 287 286 286 286 286 285 284 283 283 282 282 282 282 282 282 281 280 281 281 280 279 278
277 278 278 279 280 281 282 283 283 283 283 284 285 285 285 286 287 287 287 288 289 289 288 288 288 288 287 286 285 284 284 284 284 283 282 282 282 281 281 281 280 279 279 278
279 278 279 280 280 281 281 282 282 283 283 284 285 286 286 287 287 288 288 289 289 290 290 290 290 289 288 287 286 286 285 285 285 285 285 284 284 283 282 281 281 280 279 278
280 280 281 282 282 282 282 282 282 282 283 284 285 286 286 287 287 287 288 289 289 290 291 291 291 291 290 289 288 287 287 287 287 286 285 284 284 284 283 283 282 280 279 278
281 283 284 284 284 283 282 282 282 282 283 285 285 286 286 286 286 287 288 289 290 290 290 291 292 292 291 291 291 290 290 289 288 287 286 284 284 284 284 283 282 281 280 280
283 285 286 287 286 285 283 283 284 284 285 285 285 286 286 286 286 287 289 290 291 291 291 292 292 292 291 292 293 293 292 290 289 287 287 286 286 285 284 284 282 281 282 282
284 286 287 287 286 285 284 285 286 286 286 287 286 286 287 287 287 288 290 290 291 291 293 294 295 295 293 293 294 294 293 291 290 289 288 287 287 286 285 284 283 283 284 283
285 286 286 286 286 285 285 287 287 287 288 288 288 289 289 289 289 290 291 291 292 293 294 296 296 296 296 295 295 295 294 293 292 291 290 289 287 287 286 285 285 285 285 284
285 284 284 284 285 285 285 287 288 288 288 288 288 288 289 289 290 291 291 292 293 294 296 296 296 297 297 297 297 297 296 295 293 293 292 290 289 288 287 286 285 285 284 283
285 284 284 284 284 284 285 286 287 288 288 288 288 288 288 289 289 290 291 292 293 294 296 297 297 297 297 296 296 296 296 296 295 294 294 293 291 289 288 286 286 285 284 283
Height
5820 5819 5819 5819 5819 5819 5818 5818 5818 5818 5816 5815 5814 5813 5811 5810 5809 5808 5807 5806 5805 5804 5804 5803 5802 5802 5802 5801 5801 5800 5800 5800 5800 5800 5800 5800 5800 5800 5799 5799 5799 5799 5799 5798
5814 5814 5813 5813 5813 5813 5812 5812 5811 5811 5810 5809 5808 5807 5805 5804 5803 5802 5801 5800 5799 5798 5797 5797 5796 5796 5795 5794 5794 5794 5793 5794 5793 5793 5793 5794 5793 5793 5793 5793 5793 5793 5793 5793
5809 5808 5807 5806 5808 5807 5806 5806 5806 5805 5805 5803 5802 5801 5800 5798 5796 5795 5794 5793 5792 5791 5790 5790 5789 5789 5788 5787 5786 5786 5786 5786 5786 5786 5786 5787 5786 5786 5786 5786 5786 5786 5786 5786
5802 5803 5801 5804 5801 5801 5800 5799 5799 5798 5797 5796 5795 5794 5793 5792 5790 5789 5788 5786 5785 5784 5783 5782 5781 5781 5781 5779 5778 5779 5779 5779 5779 5779 5779 5779 5779 5779 5779 5779 5779 5778 5778 5778
5796 5795 5795 5796 5795 5794 5794 5793 5792 5791 5790 5789 5788 5787 5786 5785 5784 5783 5781 5780 5778 5777 5776 5775 5774 5773 5773 5772 5772 5771 5771 5770 5770 5771 5771 5771 5771 5771 5771 5770 5770 5770 5770 5770
5790 5789 5789 5790 5789 5788 5788 5786 5786 5785 5783 5782 5781 5781 5780 5778 5777 5776 5774 5773 5771 5770 5769 5768 5766 5765 5765 5764 5764 5763 5763 5762 5762 5762 5762 5762 5762 5762 5762 5762 5762 5762 5761 5761
5784 5783 5782 5783 5782 5782 5783 5782 5780 5778 5777 5776 5775 5774 5772 5771 5770 5768 5767 5766 5764 5763 5761 5760 5759 5758 5757 5756 5755 5755 5754 5754 5753 5753 5753 5753 5753 5753 5752 5752 5752 5752 5752 5752
5778 5777 5778 5776 5776 5776 5775 5773 5772 5771 5770 5769 5768 5767 5765 5763 5762 5761 5759 5758 5756 5755 5754 5752 5751 5750 5748 5747 5746 5745 5745 5744 5744 5744 5744 5743 5743 5743 5743 5742 5742 5742 5742 5742
5771 5772 5770 5768 5768 5767 5767 5766 5765 5764 5763 5761 5760 5759 5757 5755 5754 5753 5751 5750 5748 5747 5745 5744 5742 5741 5739 5738 5737 5736 5735 5735 5734 5734 5734 5733 5733 5733 5733 5732 5732 5732 5731 5731
5764 5764 5762 5761 5760 5760 5759 5758 5757 5756 5755 5753 5752 5750 5749 5747 5746 5744 5743 5741 5740 5738 5737 5735 5733 5732 5731 5729 5728 5727 5725 5725 5724 5724 5723 5723 5722 5722 5722 5721 5721 5720 5720 5720
5756 5756 5754 5754 5753 5752 5751 5750 5749 5748 5747 5745 5743 5741 5740 5738 5736 5735 5734 5732 5731 5729 5727 5725 5724 5723 5721 5720 5719 5717 5716 5715 5714 5713 5713 5712 5712 5711 5711 5711 5709 5709 5709 5709
5747 5747 5746 5745 5744 5743 5742 5742 5741 5739 5738 5736 5734 5732 5730 5729 5727 5726 5724 5723 5721 5719 5717 5716 5714 5713 5711 5710 5708 5707 5706 5705 5704 5703 5702 5702 5701 5700 5699 5699 5698 5697 5697 5696
5738 5737 5737 5736 5734 5734 5733 5732 5731 5729 5728 5726 5724 5723 5721 5719 5717 5716 5714 5713 5711 5709 5707 5705 5703 5702 5700 5699 5697 5696 5695 5694 5693 5692 5691 5691 5690 5689 5688 5688 5687 5686 5685 5684
5729 5728 5727 5726 5725 5724 5723 5722 5721 5719 5718 5716 5714 5713 5711 5709 5707 5706 5704 5702 5700 5698 5696 5694 5693 5691 5689 5688 5686 5685 5684 5683 5682 5681 5680 5679 5678 5677 5676 5675 5675 5674 5673 5672
5719 5718 5717 5717 5716 5715 5714 5712 5711 5709 5708 5706 5705 5703 5701 5699 5697 5695 5693 5691 5689 5687 5685 5683 5681 5680 5678 5676 5675 5673 5672 5671 5670 5669 5668 5667 5666 5664 5664 5663 5662 5662 5661 5660
5709 5708 5708 5707 5706 5705 5703 5702 5701 5699 5698 5696 5694 5693 5691 5689 5687 5685 5683 5681 5679 5677 5675 5672 5670 5669 5667 5665 5663 5662 5660 5659 5658 5657 5656 5654 5653 5652 5651 5650 5649 5648 5647 5646
5699 5699 5698 5697 5696 5695 5693 5692 5690 5689 5687 5686 5684 5682 5681 5679 5677 5675 5673 5671 5668 5666 5664 5661 5660 5657 5655 5654 5652 5650 5648 5647 5645 5644 5643 5642 5640 5639 5638 5637 5636 5634 5633 5632
5689 5688 5687 5687 5686 5684 5683 5682 5680 5679 5677 5675 5674 5672 5670 5669 5667 5665 5662 5660 5657 5655 5653 5650 5648 5646 5644 5642 5640 5638 5637 5635 5634 5632 5630 5629 5627 5626 5625 5623 5622 5621 5619 5618
5679 5678 5677 5676 5675 5674 5673 5671 5670 5668 5667 5665 5663 5662 5660 5658 5656 5653 5651 5649 5646 5644 5642 5639 5637 5635 5633 5631 5628 5627 5625 5623 5621 5620 5618 5616 5615 5613 5611 5610 5608 5607 5605 5604
5669 5668 5667 5666 5665 5663 5662 5661 5659 5658 5656 5655 5653 5651 5649 5647 5645 5642 5640 5638 5635 5632 5630 5628 5626 5623 5621 5619 5617 5615 5613 5611 5609 5607 5605 5603 5602 5600 5598 5596 5595 5593 5592 5590
5659 5658 5657 5655 5654 5653 5651 5650 5648 5647 5645 5643 5642 5640 5638 5636 5633 5631 5629 5627 5624 5621 5619 5616 5614 5611 5609 5607 5605 5602 5600 5598 5596 5594 5592 5590 5589 5587 5585 5583 5581 5580 5578 5577
5649 5648 5646 5645 5643 5642 5640 5639 5637 5636 5634 5632 5630 5628 5626 5624 5622 5620 5618 5615 5613 5610 5608 5605 5602 5600 5597 5595 5592 5590 5588 5586 5584 5582 5580 5578 5576 5574 5572 5570 5568 5567 5565 5564
5639 5638 5636 5634 5633 5631 5630 5628 5627 5625 5623 5621 5619 5617 5615 5613 5611 5609 5607 5605 5602 5600 5597 5594 5591 5588 5585 5583 5581 5578 5576 5574 5571 5569 5567 5565 5563 5561 5559 5557 5556 5554 5553 5551
5629 5628 5626 5625 5623 5621 5620 5618 5616 5614 5612 5610 5608 5606 5604 5602 5600 5598 5596 5594 5591 5589 5586 5583 5580 5577 5574 5571 5569 5567 5564 5562 5559 5557 5555 5553 5551 5549 5547 5545 5543 5542 5540 5539
5619 5618 5616 5615 5613 5611 5610 5608 5606 5604 5602 5600 5598 5596 5593 5591 5589 5587 5585 5583 5581 5578 5576 5573 5570 5566 5563 5561 5558 5555 5553 5550 5548 5545 5543 5541 5539 5537 5535 5533 5531 5530 5528 5527
5609 5608 5606 5605 5603 5601 5600 5598 5596 5594 5592 5590 5588 5586 5584 5581 5579 5577 5575 5573 5570 5568 5565 5562 5559 5556 5553 5550 5548 5545 5542 5539 5537 5534 5532 5530 5527 5526 5524 5522 5520 5519 5517 5516
5599 5597 5596 5594 5593 5591 5589 5587 5586 5584 5582 5580 5578 5576 5574 5571 5569 5567 5565 5563 5560 5558 5555 5552 5549 5546 5543 5540 5538 5535 5532 5530 5527 5524 5522 5520 5517 5515 5513 5512 5510 5509 5507 5506